TimeICT,TemperatureF,Dew PointF,Humidity,Sea Level PressureIn,VisibilityMPH,Wind Direction,Wind SpeedMPH,Gust SpeedMPH,PrecipitationIn,Events,Conditions,WindDirDegrees,DateUTC
12:00 AM,75.2,64.4,69,29.89,6.2,NNW,3.5,-,N/A,,Mostly Cloudy,330,2013-01-01 17:00:00
12:30 AM,75.2,64.4,69,29.89,6.2,NNW,4.6,-,N/A,,Mostly Cloudy,340,2013-01-01 17:30:00
1:00 AM,77,64,56,29.87,6,NE,4.6,,,,Haze,50,2013-01-01 18:00:00
1:00 AM,75.2,64.4,69,29.89,6.2,North,5.8,-,N/A,,Mostly Cloudy,360,2013-01-01 18:00:00
1:30 AM,75.2,64.4,69,29.89,5.6,NNW,6.9,-,N/A,,Mostly Cloudy,340,2013-01-01 18:30:00
2:00 AM,75.2,64.4,69,29.89,5.6,NNW,3.5,-,N/A,,Mostly Cloudy,330,2013-01-01 19:00:00
2:30 AM,73.4,64.4,73,29.86,5.6,NNW,3.5,-,N/A,,Mostly Cloudy,330,2013-01-01 19:30:00
3:00 AM,73.4,64.4,73,29.86,5.6,NNW,4.6,-,N/A,,Mostly Cloudy,340,2013-01-01 20:00:00
3:30 AM,75.2,62.6,65,29.86,5.6,North,2.3,-,N/A,,Scattered Clouds,10,2013-01-01 20:30:00
4:00 AM,73.4,62.6,69,29.86,5.6,North,4.6,-,N/A,,Scattered Clouds,10,2013-01-01 21:00:00
4:30 AM,73.4,64.4,73,29.86,5.0,North,4.6,-,N/A,,Scattered Clouds,360,2013-01-01 21:30:00
5:00 AM,73.4,62.6,69,29.86,5.0,NNE,1.2,-,N/A,,Scattered Clouds,30,2013-01-01 22:00:00
5:30 AM,73.4,62.6,69,29.86,5.0,North,2.3,-,N/A,,Scattered Clouds,360,2013-01-01 22:30:00
6:00 AM,71.6,64.4,78,29.89,5.0,NNW,4.6,-,N/A,,Scattered Clouds,340,2013-01-01 23:00:00
6:30 AM,71.6,64.4,78,29.89,5.0,North,4.6,-,N/A,,Scattered Clouds,360,2013-01-01 23:30:00
7:00 AM,73,64,65,29.87,5,ENE,2.3,,,,Mist,60,2013-01-02 00:00:00
7:00 AM,71.6,64.4,78,29.89,4.3,North,5.8,-,N/A,,Scattered Clouds,350,2013-01-02 00:00:00
7:30 AM,71.6,64.4,78,29.92,4.3,North,4.6,-,N/A,,Scattered Clouds,10,2013-01-02 00:30:00
8:00 AM,75.2,64.4,69,29.92,5.0,North,4.6,-,N/A,,Scattered Clouds,350,2013-01-02 01:00:00
8:30 AM,77.0,64.4,65,29.95,4.3,NNW,5.8,-,N/A,,Scattered Clouds,340,2013-01-02 01:30:00
9:00 AM,78.8,62.6,57,29.95,5.6,NNE,4.6,-,N/A,,Unknown,30,2013-01-02 02:00:00
9:30 AM,80.6,62.6,54,29.95,-9999.0,NNE,4.6,-,N/A,,Clear,30,2013-01-02 02:30:00
10:00 AM,82.4,62.6,51,29.95,-9999.0,NNE,8.1,-,N/A,,Clear,30,2013-01-02 03:00:00
10:30 AM,82.4,60.8,48,29.95,-9999.0,NE,9.2,-,N/A,,Clear,50,2013-01-02 03:30:00
11:00 AM,84.2,62.6,48,29.95,-9999.0,NE,11.5,-,N/A,,Clear,40,2013-01-02 04:00:00
11:30 AM,86.0,62.6,45,29.95,-9999.0,ENE,10.4,-,N/A,,Clear,70,2013-01-02 04:30:00
12:00 PM,86.0,64.4,48,29.92,6.2,East,9.2,-,N/A,,Scattered Clouds,80,2013-01-02 05:00:00
12:30 PM,86.0,62.6,45,29.92,6.2,ENE,9.2,-,N/A,,Scattered Clouds,60,2013-01-02 05:30:00
1:00 PM,92,64,30,29.87,5,ESE,2.3,,,,Haze,120,2013-01-02 06:00:00
1:00 PM,87.8,62.6,43,29.89,6.2,ENE,8.1,-,N/A,,Scattered Clouds,60,2013-01-02 06:00:00
1:30 PM,87.8,62.6,43,29.89,6.2,ESE,8.1,-,N/A,,Scattered Clouds,110,2013-01-02 06:30:00
2:00 PM,89.6,60.8,38,29.86,6.2,East,8.1,-,N/A,,Scattered Clouds,80,2013-01-02 07:00:00
2:30 PM,89.6,62.6,40,29.86,6.2,East,8.1,19.6,N/A,,Scattered Clouds,90,2013-01-02 07:30:00
3:00 PM,89.6,62.6,40,29.86,6.2,East,8.1,-,N/A,,Scattered Clouds,80,2013-01-02 08:00:00
3:30 PM,89.6,62.6,40,29.86,6.2,ENE,8.1,-,N/A,,Scattered Clouds,70,2013-01-02 08:30:00
4:00 PM,89.6,62.6,40,29.83,6.2,ENE,9.2,-,N/A,,Scattered Clouds,60,2013-01-02 09:00:00
4:30 PM,89.6,60.8,38,29.86,6.2,ENE,8.1,-,N/A,,Scattered Clouds,60,2013-01-02 09:30:00
5:00 PM,89.6,60.8,38,29.86,6.2,ENE,8.1,-,N/A,,Scattered Clouds,60,2013-01-02 10:00:00
5:30 PM,89.6,60.8,38,29.86,6.2,ENE,6.9,-,N/A,,Scattered Clouds,60,2013-01-02 10:30:00
6:00 PM,87.8,62.6,43,29.86,6.2,ENE,5.8,-,N/A,,Scattered Clouds,70,2013-01-02 11:00:00
6:30 PM,84.2,62.6,48,29.89,6.2,NE,4.6,-,N/A,,Scattered Clouds,50,2013-01-02 11:30:00
7:00 PM,85,67,45,29.87,5,Calm,Calm,,,,Haze,,2013-01-02 12:00:00
7:00 PM,82.4,64.4,54,29.89,6.2,North,6.9,-,N/A,,Scattered Clouds,350,2013-01-02 12:00:00
7:30 PM,80.6,64.4,58,29.89,6.2,North,5.8,-,N/A,,Scattered Clouds,350,2013-01-02 12:30:00
8:00 PM,82.4,64.4,54,29.89,6.2,NNW,5.8,-,N/A,,Scattered Clouds,330,2013-01-02 13:00:00
8:30 PM,78.8,64.4,61,29.92,6.2,NNW,5.8,-,N/A,,Scattered Clouds,330,2013-01-02 13:30:00
9:00 PM,80.6,66.2,61,29.92,6.2,NW,4.6,-,N/A,,Scattered Clouds,320,2013-01-02 14:00:00
9:30 PM,78.8,64.4,61,29.92,6.2,NNW,4.6,-,N/A,,Scattered Clouds,330,2013-01-02 14:30:00
10:00 PM,78.8,68.0,69,29.92,6.2,WNW,3.5,-,N/A,,Scattered Clouds,300,2013-01-02 15:00:00
10:30 PM,78.8,64.4,61,29.92,6.2,NNW,3.5,-,N/A,,Scattered Clouds,330,2013-01-02 15:30:00
11:00 PM,77.0,66.2,69,29.92,6.2,NW,3.5,-,N/A,,Scattered Clouds,320,2013-01-02 16:00:00
11:30 PM,78.8,68.0,69,29.92,5.6,East,5.8,-,N/A,,Scattered Clouds,80,2013-01-02 16:30:00